Hourly Data Report for October 25, 2016

All times are specified in Local Standard Time (LST). Add 1 hour to adjust for Daylight Saving Time where and when it is observed.

KITCHENER/WATERLOO
ONTARIO

43°27'39.000" N
80°22'43.000" W
321.60 m
6144239
71368
YKF

Download Data

Hourly Data (October 2016)
Hourly Data Report for October 25, 2016
Temp Definition
°C
Dew Point Temp Definition
°C
Rel Hum Definition
%
Wind Dir Definition
10's deg

Wind Spd Definition
km/h
Visibility Definition
km
Stn Press Definition
kPa
Hmdx Definition


Wind Chill Definition


Weather Definition


TIME
00:00 Legend Double Dagger 4.3 1.5 82 31 15 16.1 98.58     LegendNANA
01:00 Legend Double Dagger 4.2 1.1 80 31 15 16.1 98.59     LegendNANA
02:00 Legend Double Dagger 4.0 0.0 75 28 15 16.1 98.61     LegendNANA
03:00 Legend Double Dagger 3.6 0.1 78 29 13 16.1 98.66     LegendNANA
04:00 Legend Double Dagger 3.4 -2.0 68 31 18 16.1 98.67     LegendNANA
05:00 Legend Double Dagger 2.7 -2.9 67 29 15 16.1 98.71     LegendNANA
06:00 Legend Double Dagger 3.0 -3.6 62 30 15 16.1 98.73     LegendNANA
07:00 Legend Double Dagger 3.1 -3.0 65 30 11 16.1 98.79     LegendNANA
08:00 Legend Double Dagger 3.9 -2.8 62 32 17 16.1 98.84     LegendNANA
09:00 Legend Double Dagger 5.8 -3.1 53 31 24 16.1 98.85     LegendNANA
10:00 Legend Double Dagger 7.1 -4.2 45 31 35 16.1 98.87     LegendNANA
11:00 Legend Double Dagger 8.0 -3.3 45 34 28 16.1 98.88     LegendNANA
12:00 Legend Double Dagger 6.9 -2.5 51 30 28 16.1 98.88     LegendNANA
13:00 Legend Double Dagger 8.7 -0.7 52 33 28 16.1 98.89     LegendNANA
14:00 Legend Double Dagger 8.2 -1.7 50 31 26 16.1 98.89     LegendNANA
15:00 Legend Double Dagger 6.5 -1.6 56 32 24 16.1 98.90     LegendNANA
16:00 Legend Double Dagger 6.1 -3.8 49 33 24 16.1 98.93     LegendNANA
17:00 Legend Double Dagger 4.6 -5.0 50 32 15 16.1 98.98     LegendNANA
18:00 Legend Double Dagger 2.5 -3.2 66 31 15 16.1 99.04     LegendNANA
19:00 Legend Double Dagger 1.4 -3.1 72 31 11 16.1 99.12     LegendNANA
20:00 Legend Double Dagger -0.2 -3.1 81 33 9 16.1 99.17   -3 LegendNANA
21:00 Legend Double Dagger -0.9 -3.8 81 32 9 16.1 99.19   -4 LegendNANA
22:00 Legend Double Dagger -2.1 -3.7 89 31 9 16.1 99.21   -6 LegendNANA
23:00 Legend Double Dagger -2.0 -3.4 90 31 8 16.1 99.20   -5 LegendNANA

Notes on Data Quality.

Legend

  • E = Estimated
  • M = Missing
  • NA = Not Available
  • ‡ = Partner data that is not subject to review by the National Climate Archives
Date modified: